Theta_e
308 308 308 308 308 308 308 308 309 309 310 310 310 310 311 311 311 307 300 305 308 316 319 306 301 302 303 302 302 301 298 295 297 295 299 317 316 322 325 321 322 324 325 328 330
307 308 308 307 307 307 308 308 308 309 310 311 311 311 311 310 306 301 311 313 317 321 303 301 299 300 300 300 301 300 297 297 301 301 301 310 317 319 318 319 320 322 327 330 329
307 307 307 307 307 307 307 307 308 309 310 311 311 311 311 309 298 297 318 317 319 320 302 302 301 299 297 299 299 298 298 300 301 303 305 306 311 321 318 315 320 320 323 326 326
306 306 306 306 307 307 307 307 308 309 310 311 311 311 310 306 289 299 324 320 321 316 302 300 299 296 295 296 299 296 300 301 302 304 306 305 315 317 319 319 324 327 326 326 325
305 305 306 306 307 307 307 307 308 309 310 311 311 310 305 297 296 302 324 323 315 303 301 298 296 294 294 296 297 297 299 300 302 303 304 311 309 313 317 323 325 327 325 324 324
305 305 305 305 306 306 307 308 308 309 310 311 310 308 300 287 299 304 312 310 305 302 299 297 296 297 296 296 296 298 298 299 300 301 301 303 307 315 315 326 325 324 322 323 323
304 305 305 305 306 306 307 308 308 310 311 312 310 306 299 292 302 303 304 305 304 304 300 301 300 299 298 295 297 297 295 297 297 299 300 308 304 309 317 325 323 322 322 323 323
304 305 305 306 306 307 307 308 309 310 311 310 310 304 294 304 305 303 304 302 304 305 303 303 302 300 298 298 295 294 294 291 295 298 300 306 298 305 320 324 321 323 322 324 324
304 305 305 305 306 307 307 308 308 312 310 309 304 300 292 305 301 305 304 300 302 301 302 301 301 297 297 294 291 291 288 289 292 298 307 306 298 306 320 323 322 323 323 324 325
305 305 305 305 305 306 307 305 306 309 309 308 306 294 296 295 303 305 305 302 299 299 297 297 295 293 291 292 285 287 287 289 291 294 305 306 303 309 317 320 321 324 324 324 325
304 305 305 305 305 306 302 298 293 294 296 296 294 293 295 302 304 303 304 300 298 296 292 293 290 288 291 292 290 290 289 288 291 293 293 299 305 307 310 319 318 320 323 325 325
305 304 305 305 304 305 298 293 292 292 287 295 295 294 298 300 296 300 302 296 294 290 291 290 287 291 292 291 291 290 289 288 290 292 292 293 294 301 302 314 319 320 322 325 326
304 304 304 304 304 297 296 294 298 298 289 290 295 294 295 299 295 297 298 295 293 289 289 288 289 291 291 289 288 288 288 287 288 290 291 291 291 293 299 310 316 321 323 325 327
303 303 303 303 297 295 292 296 297 297 284 287 292 297 297 299 294 302 299 296 292 289 288 289 291 289 289 288 290 286 290 290 289 289 286 291 284 290 295 300 311 317 321 323 325
303 303 303 302 295 292 295 296 296 297 273 290 293 301 297 295 294 295 300 298 291 289 290 288 287 288 288 289 291 289 292 290 290 289 287 287 286 290 297 296 300 313 319 322 323
303 303 301 295 294 295 294 293 298 283 272 286 290 289 290 292 293 295 294 296 295 290 290 290 292 291 291 291 293 293 290 288 288 288 283 287 287 288 293 298 300 307 316 319 320
302 301 296 296 288 294 292 296 282 275 286 282 284 288 288 286 289 289 287 284 284 285 286 288 289 292 293 289 292 291 289 283 281 281 282 286 286 289 291 293 302 307 311 315 318
301 297 293 294 293 291 293 290 276 279 280 286 286 287 283 285 286 282 282 280 284 283 284 284 282 289 292 291 289 289 290 284 278 278 282 285 283 287 294 297 299 300 304 311 316
298 289 291 292 292 293 294 276 275 277 281 281 285 282 281 283 285 282 279 278 281 282 282 283 283 293 293 292 293 288 286 291 284 283 282 284 286 290 296 296 297 297 299 299 300
288 285 288 293 292 295 286 278 278 282 284 284 278 281 277 279 281 280 277 280 279 283 285 282 282 290 291 293 293 290 292 285 286 279 278 281 283 286 290 292 294 294 295 296 297
286 283 289 291 293 285 277 278 281 283 285 281 279 278 278 277 280 277 275 280 281 281 284 282 283 287 290 286 286 288 287 287 288 286 281 279 283 292 292 292 291 292 293 294 295
284 278 290 289 280 277 277 280 283 281 284 282 282 280 278 279 276 276 275 277 283 283 278 281 281 281 284 288 289 287 285 286 284 282 284 285 284 295 294 292 291 290 291 293 294
280 280 288 288 273 274 280 280 281 280 279 280 278 280 282 278 275 277 277 282 283 281 279 280 280 278 281 285 287 284 284 284 285 287 284 282 283 293 295 291 290 290 291 292 293
281 274 280 281 281 278 278 277 277 282 280 280 279 280 279 277 279 276 276 280 282 282 285 283 279 276 276 277 278 279 280 281 283 284 283 284 284 288 289 288 288 288 290 291 291
280 276 279 273 276 278 279 278 275 275 280 281 278 277 276 274 275 275 277 278 280 282 281 279 273 275 276 277 277 276 277 278 279 281 281 283 283 284 286 286 286 287 287 288 289
278 278 281 278 279 277 277 275 275 276 278 277 276 277 277 275 275 273 276 276 275 279 277 279 273 275 274 277 277 275 277 278 280 281 281 282 281 286 286 286 285 285 286 286 287
285 285 281 277 277 276 276 276 276 278 279 280 278 277 276 278 280 280 281 280 279 277 276 276 274 273 270 275 275 273 276 278 279 282 282 279 282 284 283 282 283 284 285 285 286
Wind_Speed
26 26 27 26 26 26 26 25 24 23 21 20 19 18 18 18 19 3 9 11 7 10 9 3 3 3 3 4 3 3 4 6 5 7 3 4 2 2 2 9 3 4 6 6 22
28 28 28 27 27 27 26 25 24 23 21 20 18 16 16 16 10 12 12 8 13 7 7 8 6 6 4 4 4 5 6 9 4 5 4 4 3 7 5 10 3 5 9 23 22
28 29 29 29 29 28 27 25 23 23 21 19 17 15 14 13 6 8 4 16 13 11 3 4 5 4 5 3 6 6 8 8 3 5 3 3 2 7 7 9 8 11 19 25 25
29 29 30 30 30 29 28 26 24 22 21 19 15 12 12 3 7 1 5 13 11 7 4 6 4 6 5 7 5 5 9 6 2 4 5 4 5 6 12 7 10 16 24 27 27
30 30 31 31 30 30 29 27 26 23 21 18 14 9 4 3 14 2 8 10 9 8 7 6 6 5 8 7 6 6 4 7 9 5 4 5 6 5 10 4 7 19 23 26 24
31 32 32 32 31 31 30 28 27 25 22 18 12 5 3 8 3 2 6 6 7 6 7 7 8 7 4 4 9 5 6 3 3 7 4 6 3 5 5 9 15 21 26 24 24
32 31 33 33 33 32 31 29 26 24 23 14 10 7 5 19 2 2 1 4 5 6 6 5 6 5 6 4 3 2 3 4 6 5 5 6 8 9 6 13 18 20 22 20 21
33 32 31 32 32 32 30 27 23 21 11 4 13 7 11 5 3 7 8 3 4 4 2 4 4 3 2 3 4 3 1 9 3 8 4 10 16 15 12 16 17 19 19 18 23
33 32 31 32 32 31 29 26 15 5 6 12 7 4 11 4 4 8 10 7 6 3 3 4 4 2 3 5 2 2 5 7 7 6 4 13 9 10 12 14 16 18 19 17 18
32 33 33 33 32 29 28 19 3 2 5 5 1 3 8 1 4 2 6 7 5 7 4 4 4 5 4 8 10 8 7 4 4 2 6 10 10 5 9 14 16 17 18 17 18
34 33 34 33 30 26 15 5 9 3 5 8 6 8 6 11 6 5 5 10 5 5 9 5 9 17 17 12 3 7 4 4 3 2 2 6 15 15 5 11 12 14 17 18 20
35 34 35 33 29 17 5 8 5 9 15 16 22 19 20 8 7 4 11 11 9 11 8 5 18 11 8 7 9 5 5 5 4 5 4 4 10 12 5 8 17 17 16 18 16
34 34 34 32 24 4 2 7 6 4 8 12 7 7 6 13 9 7 11 6 11 12 14 12 2 15 10 9 9 5 9 7 6 1 1 2 9 9 5 6 6 11 15 16 20
35 35 33 29 3 5 3 10 9 4 5 7 4 4 4 4 6 10 8 5 5 16 12 11 7 10 12 12 11 9 12 8 6 3 4 4 6 9 7 13 9 13 15 17 18
35 35 29 10 5 5 8 14 10 2 5 15 5 2 3 4 6 5 2 3 9 8 8 8 11 14 13 12 11 6 8 12 6 6 2 4 4 3 2 13 17 10 15 16 18
36 34 23 3 3 4 13 13 2 1 6 10 8 14 9 7 6 5 5 9 4 5 0 5 2 8 11 6 15 11 7 5 3 3 6 9 8 3 4 7 12 9 10 14 17
36 32 9 4 11 16 10 2 1 2 16 13 12 17 9 9 9 12 8 16 5 6 8 2 4 2 5 10 8 6 8 5 6 6 5 4 7 2 12 11 8 10 10 4 10
36 18 6 3 12 8 3 1 5 12 8 13 14 13 11 15 11 11 6 8 13 8 3 11 8 9 4 6 9 15 13 6 8 7 7 5 6 2 7 9 11 15 14 13 6
25 5 4 16 13 2 1 7 6 12 12 14 12 7 10 15 12 7 10 13 8 13 4 1 7 2 2 1 9 6 11 4 6 2 4 4 5 4 8 15 17 18 17 16 13
4 5 9 25 11 2 7 7 9 17 9 10 12 14 13 14 11 9 13 12 12 11 10 5 3 1 2 1 4 5 10 7 2 8 6 3 4 4 6 11 14 17 17 16 16
4 4 15 24 5 9 6 6 7 19 11 8 10 9 8 9 10 7 14 6 20 16 8 9 4 2 1 6 0 5 6 2 4 3 11 7 4 2 5 8 11 12 14 16 16
4 5 14 13 11 4 5 8 13 18 18 9 11 12 10 11 9 4 6 11 16 15 10 5 5 2 5 5 9 6 3 3 10 11 4 6 5 6 7 8 9 11 12 14 16
3 3 6 9 7 6 8 11 9 17 17 10 14 14 9 7 4 8 4 10 11 14 13 10 4 1 4 3 3 7 6 7 2 2 8 12 6 5 5 8 10 12 12 13 16
3 6 6 6 2 6 5 12 12 9 13 9 11 10 14 11 9 5 7 10 13 9 17 7 3 5 4 5 4 2 6 9 5 2 4 1 14 6 6 9 11 12 12 13 15
5 3 2 6 7 9 5 8 13 11 9 14 7 16 13 7 9 9 7 10 11 5 11 6 5 6 4 6 5 6 9 6 3 2 1 9 8 4 5 6 9 10 11 13 16
3 4 4 3 6 8 7 8 9 8 5 6 10 14 12 4 5 12 15 11 5 3 11 5 4 8 5 4 5 9 8 6 5 5 6 7 3 3 5 6 9 11 13 15 16
1 1 1 4 4 4 3 8 7 7 4 7 12 12 10 5 10 13 13 13 14 14 7 4 3 1 5 10 9 9 3 8 4 4 4 9 5 6 7 9 10 10 12 14 15
Wind_Direction
355 352 349 346 343 339 336 334 330 326 322 319 319 319 318 319 318 296 244 223 183 246 186 150 142 119 111 148 138 146 184 210 220 173 189 158 166 80 110 141 143 140 148 143 152
354 351 347 343 340 337 334 331 327 323 319 317 317 317 318 323 306 259 243 213 215 165 154 168 168 148 152 171 172 193 200 208 218 187 175 146 166 162 163 164 150 95 94 134 154
353 350 346 342 338 335 331 327 323 318 315 312 312 315 320 326 290 247 313 202 196 189 184 154 129 153 181 160 187 173 216 217 222 210 183 164 201 181 166 204 201 182 151 152 162
352 349 344 340 337 334 329 323 318 313 308 304 302 309 319 298 262 17 5 160 168 175 127 121 124 158 176 191 184 200 228 198 208 185 176 206 146 179 190 206 203 166 166 159 172
351 348 343 339 337 333 327 320 315 309 303 295 288 297 339 241 251 293 114 137 138 155 167 149 154 152 193 192 163 218 221 210 216 196 221 151 217 213 224 198 182 152 166 174 178
350 347 343 338 336 331 325 318 314 307 300 289 265 241 206 245 243 257 139 148 156 151 160 153 183 189 165 200 197 204 226 217 228 220 218 216 170 197 230 158 157 167 178 180 184
349 344 341 337 334 329 325 317 315 308 301 279 213 187 220 238 135 40 303 199 178 167 158 195 171 169 150 166 223 152 212 259 223 218 223 189 243 228 164 166 169 179 180 183 189
347 343 339 335 333 327 322 316 316 312 324 175 165 176 249 243 254 260 246 233 195 208 180 162 166 119 192 131 43 178 189 235 203 197 237 201 247 249 166 168 177 180 184 186 192
344 342 340 337 333 329 322 316 324 15 81 130 136 181 260 303 228 232 193 202 161 184 200 104 128 134 126 135 144 356 227 221 243 207 179 206 220 250 170 188 181 183 189 190 190
345 342 339 337 334 332 320 321 295 1 120 201 200 270 254 296 293 316 197 178 166 132 128 142 87 163 139 178 204 189 213 219 208 158 215 196 232 157 195 199 199 190 185 191 194
343 342 338 336 335 331 329 8 10 349 2 264 281 276 281 325 262 223 171 173 133 142 176 180 193 202 188 196 149 162 177 201 237 257 282 211 230 248 213 215 206 196 193 192 198
342 341 337 335 333 331 355 67 66 273 296 273 255 257 269 291 303 252 155 165 183 184 133 149 221 193 167 160 178 187 196 222 276 261 225 241 248 247 209 229 221 208 199 196 192
341 339 338 331 328 26 10 59 355 267 269 294 232 246 233 182 215 248 180 158 182 176 186 200 173 165 162 168 165 186 201 202 221 61 205 261 265 265 253 244 212 207 201 191 187
341 339 339 331 48 334 325 343 324 235 296 278 257 266 189 207 225 209 198 160 169 193 160 215 179 154 184 179 174 184 211 199 197 192 219 220 240 253 257 270 216 203 189 189 187
340 339 338 6 297 326 323 326 311 213 307 343 7 122 295 245 324 44 63 185 170 159 163 195 167 164 177 188 176 199 173 196 195 200 212 175 247 225 258 245 252 198 196 192 188
339 339 339 336 312 268 321 314 215 292 273 341 350 344 348 358 20 322 44 40 48 128 138 178 156 179 199 164 177 143 103 84 83 151 229 192 216 219 235 261 259 265 204 198 195
339 335 342 319 330 318 317 282 353 14 344 349 339 329 335 345 32 24 38 50 27 197 194 167 187 194 148 147 188 158 157 147 176 195 226 155 186 4 335 338 300 327 337 271 203
338 337 308 287 326 320 295 50 32 350 353 320 332 335 43 14 21 25 52 35 27 6 82 199 204 186 167 180 178 185 190 171 184 185 176 133 197 78 351 25 45 49 43 32 349
342 340 349 341 341 330 35 50 21 349 328 326 336 357 9 357 1 74 55 17 5 5 22 288 217 315 218 150 175 172 206 151 102 45 159 160 127 220 20 35 33 29 34 26 19
348 331 345 340 337 2 57 63 26 357 342 3 14 15 26 358 15 21 23 24 342 351 331 351 261 37 326 139 70 195 152 177 180 177 181 173 161 116 33 33 32 29 22 16 13
28 31 340 343 357 47 54 13 356 0 19 49 16 25 33 359 5 45 10 9 0 339 337 350 289 136 192 17 128 161 186 138 169 191 202 159 165 162 88 57 43 32 25 17 12
9 43 331 336 53 25 18 354 7 7 9 23 28 38 38 26 22 79 42 2 350 345 358 342 313 323 84 80 69 67 52 16 218 185 210 203 135 110 102 65 41 34 25 21 18
45 316 334 359 51 6 5 16 31 17 11 15 10 11 29 25 70 45 57 348 359 12 8 335 18 265 127 205 72 44 32 19 233 338 185 204 155 97 87 64 48 35 27 26 21
44 15 343 26 40 10 7 19 10 358 25 7 24 15 3 22 36 47 14 347 339 6 3 349 321 1 348 25 345 330 358 3 7 145 130 15 140 83 51 28 26 33 33 34 30
24 60 358 350 354 354 37 360 11 7 360 18 22 8 356 347 345 5 3 341 332 345 6 15 313 339 308 305 309 288 294 318 342 40 280 133 137 104 50 39 29 29 34 38 33
65 12 349 305 330 358 10 4 3 353 332 12 355 342 336 341 345 317 322 332 299 320 346 341 308 337 300 345 316 289 271 262 244 239 264 248 196 124 88 64 42 32 31 36 34
155 178 330 301 334 350 355 339 315 332 315 334 321 315 303 316 315 291 283 278 272 289 298 271 243 201 272 341 326 281 294 230 192 144 196 214 102 135 100 79 52 41 39 33 28